This is the latest recevied weather packets stored in our database for station/object K6POO-1. If no packets are shown the sender has not sent any weather packets the latest 10 day(s).
| Time | Temp. | Humidity | Pressure | Rain* | Wind** | Luminosity | Snow |
|---|---|---|---|---|---|---|---|
| 1788554378 | 20° C | 61% | 1014.9 hPa | 0 mm | - | 875 W/m² | - |
| 1788554075 | 20° C | 59% | 1014.8 hPa | 0 mm | - | 882 W/m² | - |
| 1788553770 | 20° C | 60% | 1014.9 hPa | 0 mm | - | 885 W/m² | - |
| 1788553466 | 20.56° C | 59% | 1014.8 hPa | 0 mm | - | 888 W/m² | - |
| 1788553162 | 20.56° C | 60% | 1014.8 hPa | 0 mm | - | 893 W/m² | - |
| 1788552856 | 20.56° C | 59% | 1014.6 hPa | 0 mm | - | 897 W/m² | - |
| 1788552552 | 20.56° C | 58% | 1014.8 hPa | 0 mm | - | 901 W/m² | - |
| 1788552250 | 20° C | 59% | 1014.7 hPa | 0 mm | - | 901 W/m² | - |
| 1788551946 | 20° C | 57% | 1014.7 hPa | 0 mm | - | 901 W/m² | - |
| 1788551644 | 20.56° C | 54% | 1014.9 hPa | 0 mm | - | 905 W/m² | - |
| 1788551338 | 20.56° C | 53% | 1014.9 hPa | 0 mm | - | 905 W/m² | - |
| 1788551038 | 20.56° C | 51% | 1014.8 hPa | 0 mm | - | 907 W/m² | - |
| 1788550733 | 20.56° C | 53% | 1014.7 hPa | 0 mm | - | 906 W/m² | - |
| 1788550429 | 20.56° C | 52% | 1014.8 hPa | 0 mm | - | 909 W/m² | - |
| 1788550124 | 20.56° C | 56% | 1014.9 hPa | 0 mm | - | 908 W/m² | - |
| 1788549819 | 20.56° C | 55% | 1015 hPa | 0 mm | - | 905 W/m² | - |
| 1788549543 | 20.56° C | 55% | 1015 hPa | 0 mm | - | 907 W/m² | - |
| 1788549212 | 20.56° C | 54% | 1015 hPa | 0 mm | - | 914 W/m² | - |
| 1788548908 | 20.56° C | 55% | 1015 hPa | 0 mm | - | 920 W/m² | - |
| 1788548604 | 20° C | 56% | 1015.2 hPa | 0 mm | - | 914 W/m² | - |
| 1788548300 | 21.11° C | 53% | 1015.1 hPa | 0 mm | - | 922 W/m² | - |
| 1788547995 | 20.56° C | 55% | 1015.2 hPa | 0 mm | - | 918 W/m² | - |
| 1788547694 | 20.56° C | 54% | 1015 hPa | 0 mm | - | 911 W/m² | - |
| 1788547390 | 20.56° C | 57% | 1014.9 hPa | 0 mm | - | 910 W/m² | - |
| 1788547086 | 20.56° C | 55% | 1015 hPa | 0 mm | - | 904 W/m² | - |
* Rain latest hour (hover to see other rain measurements)
** Current wind speed in m/s (hover to see current wind gust speed)